Location: Unspecified
(42.2164°N, 0.0000°E)
Time: 04:19:58
(UTC+00:00)

AO-73 - Visible Passes

Search period start: 05 April 2026 00:00
Search period end: 15 April 2026 00:00
Orbit: 515 x 568 km, 97.8° (Epoch: 29 March)

Date Brightness Start Highest point End Pass type
(mag) Time Alt. Az. Time Alt. Az. Time Alt. Az.
5 Apr ? 03:17:21 10° NNE 03:20:48 33° E 03:22:11 25° SE visible
5 Apr ? 04:52:31 10° NNW 04:55:06 18° WNW 04:57:41 10° WSW visible
6 Apr ? 03:10:27 10° NE 03:13:43 27° E 03:15:13 21° SE visible
6 Apr ? 04:45:13 10° NNW 04:48:07 21° WNW 04:50:45 11° WSW visible
7 Apr ? 03:03:35 10° NE 03:06:37 22° E 03:08:14 17° SE visible
7 Apr ? 04:37:57 10° NNW 04:41:06 25° WNW 04:43:46 13° WSW visible
8 Apr ? 02:56:44 10° NE 02:59:29 19° E 03:01:14 14° SE visible
8 Apr ? 04:30:42 10° N 04:34:03 30° WNW 04:36:46 14° SW visible
9 Apr ? 02:49:58 10° NE 02:52:20 16° E 02:54:13 12° SE visible
9 Apr ? 04:23:28 10° N 04:26:59 36° WNW 04:29:44 15° SW visible
10 Apr ? 02:43:21 10° ENE 02:45:09 13° E 02:46:57 10° ESE visible
10 Apr ? 04:16:14 10° N 04:19:53 45° WNW 04:22:42 16° SW visible
11 Apr ? 02:37:09 10° ENE 02:37:56 10° E 02:38:43 10° ESE visible
11 Apr ? 04:09:01 10° N 04:12:46 55° WNW 04:15:38 16° SSW visible
12 Apr ? 04:01:49 10° N 04:05:38 69° WNW 04:08:33 17° SSW visible
13 Apr ? 03:54:36 10° NNE 03:58:27 85° WNW 04:01:27 16° SSW visible
14 Apr ? 03:47:23 10° NNE 03:51:16 78° ESE 03:54:20 16° S visible
